Time,TemperatureF,DewpointF,PressureIn,WindDirection,WindDirectionDegrees,WindSpeedMPH,WindSpeedGustMPH,Humidity,HourlyPrecipIn,Conditions,Clouds,dailyrainin,SoftwareType,DateUTC
2013-03-23 00:00:00,26.5,24.8,29.33,East,82,3.0,3.0,93,0.00,,,0.00,Wunderground v.1.13,2013-03-23 04:00:00,
2013-03-23 00:06:00,26.5,24.5,29.33,ENE,75,3.0,3.0,92,0.00,,,0.00,Wunderground v.1.13,2013-03-23 04:06:00,
2013-03-23 00:07:00,26.5,24.5,29.33,East,85,3.0,8.0,92,0.00,,,0.00,Wunderground v.1.13,2013-03-23 04:07:00,
2013-03-23 00:08:00,26.5,24.5,29.33,ENE,76,3.0,8.0,92,0.00,,,0.00,Wunderground v.1.13,2013-03-23 04:08:00,
2013-03-23 00:13:00,26.5,24.5,29.33,ESE,112,4.0,4.0,92,0.00,,,0.00,Wunderground v.1.13,2013-03-23 04:13:00,
2013-03-23 00:21:00,26.5,24.5,29.32,ENE,77,3.0,3.0,92,0.00,,,0.00,Wunderground v.1.13,2013-03-23 04:21:00,
2013-03-23 00:27:00,26.5,24.5,29.32,NE,55,3.0,11.0,92,0.00,,,0.00,Wunderground v.1.13,2013-03-23 04:27:00,
2013-03-23 00:36:00,26.5,24.5,29.32,NNE,26,4.0,4.0,92,0.00,,,0.00,Wunderground v.1.13,2013-03-23 04:36:00,
2013-03-23 00:42:00,26.5,24.5,29.32,NNE,27,3.0,3.0,92,0.00,,,0.00,Wunderground v.1.13,2013-03-23 04:42:00,
2013-03-23 00:50:00,26.4,24.4,29.31,NNE,19,3.0,3.0,92,0.00,,,0.00,Wunderground v.1.13,2013-03-23 04:50:00,
2013-03-23 00:56:00,26.4,24.4,29.31,ENE,61,4.0,4.0,92,0.00,,,0.00,Wunderground v.1.13,2013-03-23 04:56:00,
2013-03-23 01:06:00,26.4,24.4,29.31,East,96,4.0,9.0,92,0.00,,,0.00,Wunderground v.1.13,2013-03-23 05:06:00,
2013-03-23 01:12:00,26.3,24.3,29.30,NE,44,4.0,4.0,92,0.00,,,0.00,Wunderground v.1.13,2013-03-23 05:12:00,
2013-03-23 01:22:00,26.3,24.3,29.30,NE,38,3.0,4.0,92,0.00,,,0.00,Wunderground v.1.13,2013-03-23 05:22:00,
2013-03-23 01:27:00,26.2,24.2,29.30,NNE,22,3.0,4.0,92,0.00,,,0.00,Wunderground v.1.13,2013-03-23 05:27:00,
2013-03-23 01:36:00,26.1,24.1,29.29,East,91,3.0,3.0,92,0.00,,,0.00,Wunderground v.1.13,2013-03-23 05:36:00,
2013-03-23 01:42:00,26.0,24.0,29.29,ESE,112,3.0,4.0,92,0.00,,,0.00,Wunderground v.1.13,2013-03-23 05:42:00,
2013-03-23 01:51:00,26.0,24.0,29.29,NE,50,4.0,7.0,92,0.00,,,0.00,Wunderground v.1.13,2013-03-23 05:51:00,
2013-03-23 01:57:00,25.9,23.9,29.29,NW,322,4.0,4.0,92,0.00,,,0.00,Wunderground v.1.13,2013-03-23 05:57:00,
2013-03-23 02:05:00,25.9,24.2,29.29,East,86,4.0,4.0,93,0.00,,,0.00,Wunderground v.1.13,2013-03-23 06:05:00,
2013-03-23 02:11:00,25.8,24.1,29.29,ESE,103,3.0,7.0,93,0.00,,,0.00,Wunderground v.1.13,2013-03-23 06:11:00,
2013-03-23 02:21:00,25.8,24.1,29.28,NNE,13,4.0,4.0,93,0.00,,,0.00,Wunderground v.1.13,2013-03-23 06:21:00,
2013-03-23 02:26:00,25.7,24.0,29.28,East,93,3.0,3.0,93,0.00,,,0.00,Wunderground v.1.13,2013-03-23 06:26:00,
2013-03-23 02:36:00,25.7,24.0,29.28,East,94,3.0,7.0,93,0.00,,,0.00,Wunderground v.1.13,2013-03-23 06:36:00,
2013-03-23 02:41:00,25.7,24.0,29.27,ENE,57,3.0,3.0,93,0.00,,,0.00,Wunderground v.1.13,2013-03-23 06:41:00,
2013-03-23 02:50:00,25.6,23.9,29.27,ENE,57,3.0,3.0,93,0.00,,,0.00,Wunderground v.1.13,2013-03-23 06:50:00,
2013-03-23 02:57:00,25.6,23.9,29.27,ENE,63,4.0,5.0,93,0.00,,,0.00,Wunderground v.1.13,2013-03-23 06:57:00,
2013-03-23 03:07:00,25.6,23.9,29.27,NNE,24,3.0,4.0,93,0.00,,,0.00,Wunderground v.1.13,2013-03-23 07:07:00,
2013-03-23 03:12:00,25.6,23.9,29.26,North,355,4.0,4.0,93,0.00,,,0.00,Wunderground v.1.13,2013-03-23 07:12:00,
2013-03-23 03:21:00,25.5,23.8,29.26,North,355,3.0,4.0,93,0.00,,,0.00,Wunderground v.1.13,2013-03-23 07:21:00,
2013-03-23 03:26:00,25.6,23.9,29.26,East,96,3.0,3.0,93,0.00,,,0.00,Wunderground v.1.13,2013-03-23 07:26:00,
2013-03-23 03:36:00,25.5,23.8,29.26,ENE,69,3.0,3.0,93,0.00,,,0.00,Wunderground v.1.13,2013-03-23 07:36:00,
2013-03-23 03:42:00,25.5,23.8,29.25,NE,48,3.0,4.0,93,0.00,,,0.00,Wunderground v.1.13,2013-03-23 07:42:00,
2013-03-23 03:52:00,25.6,23.9,29.25,NNE,26,3.0,6.0,93,0.00,,,0.00,Wunderground v.1.13,2013-03-23 07:52:00,
2013-03-23 03:58:00,25.6,23.9,29.25,East,92,3.0,11.0,93,0.00,,,0.00,Wunderground v.1.13,2013-03-23 07:58:00,
2013-03-23 04:07:00,25.6,23.9,29.25,NE,55,3.0,6.0,93,0.00,,,0.00,Wunderground v.1.13,2013-03-23 08:07:00,
2013-03-23 04:12:00,25.6,23.9,29.24,South,171,4.0,9.0,93,0.00,,,0.00,Wunderground v.1.13,2013-03-23 08:12:00,
2013-03-23 04:20:00,25.7,24.0,29.24,East,83,3.0,3.0,93,0.00,,,0.00,Wunderground v.1.13,2013-03-23 08:20:00,
2013-03-23 04:26:00,25.7,24.0,29.24,WNW,293,2.0,2.0,93,0.00,,,0.00,Wunderground v.1.13,2013-03-23 08:26:00,
2013-03-23 04:36:00,25.7,24.0,29.24,East,92,4.0,4.0,93,0.00,,,0.00,Wunderground v.1.13,2013-03-23 08:36:00,
2013-03-23 04:41:00,25.7,24.0,29.24,ENE,69,3.0,3.0,93,0.00,,,0.00,Wunderground v.1.13,2013-03-23 08:41:00,
2013-03-23 04:50:00,25.7,24.0,29.24,NNE,17,3.0,3.0,93,0.00,,,0.00,Wunderground v.1.13,2013-03-23 08:50:00,
2013-03-23 04:56:00,25.7,24.0,29.24,East,80,3.0,3.0,93,0.00,,,0.00,Wunderground v.1.13,2013-03-23 08:56:00,
2013-03-23 05:06:00,25.7,24.0,29.24,NE,55,3.0,3.0,93,0.00,,,0.00,Wunderground v.1.13,2013-03-23 09:06:00,
2013-03-23 05:12:00,25.8,24.1,29.23,NE,49,4.0,5.0,93,0.00,,,0.00,Wunderground v.1.13,2013-03-23 09:12:00,
2013-03-23 05:21:00,25.8,24.1,29.23,ENE,63,4.0,4.0,93,0.00,,,0.00,Wunderground v.1.13,2013-03-23 09:21:00,
2013-03-23 05:27:00,25.7,24.0,29.23,ESE,112,3.0,3.0,93,0.00,,,0.00,Wunderground v.1.13,2013-03-23 09:27:00,
2013-03-23 05:36:00,25.7,24.0,29.23,East,81,3.0,5.0,93,0.00,,,0.00,Wunderground v.1.13,2013-03-23 09:36:00,
2013-03-23 05:42:00,25.7,24.0,29.23,NE,35,3.0,5.0,93,0.00,,,0.00,Wunderground v.1.13,2013-03-23 09:42:00,
2013-03-23 05:51:00,25.8,24.1,29.23,ENE,71,3.0,3.0,93,0.00,,,0.00,Wunderground v.1.13,2013-03-23 09:51:00,
2013-03-23 05:56:00,25.8,24.1,29.23,East,85,3.0,3.0,93,0.00,,,0.00,Wunderground v.1.13,2013-03-23 09:56:00,
2013-03-23 06:07:00,25.8,24.1,29.23,NNE,24,2.0,3.0,93,0.00,,,0.00,Wunderground v.1.13,2013-03-23 10:07:00,
2013-03-23 06:13:00,25.8,24.1,29.23,ENE,65,3.0,8.0,93,0.00,,,0.00,Wunderground v.1.13,2013-03-23 10:13:00,
2013-03-23 06:22:00,25.8,24.1,29.23,NE,37,3.0,3.0,93,0.00,,,0.00,Wunderground v.1.13,2013-03-23 10:22:00,
2013-03-23 06:28:00,25.8,24.1,29.23,NE,34,2.0,4.0,93,0.00,,,0.00,Wunderground v.1.13,2013-03-23 10:28:00,
2013-03-23 06:36:00,25.8,24.3,29.24,NE,51,2.0,3.0,94,0.00,,,0.00,Wunderground v.1.13,2013-03-23 10:36:00,
2013-03-23 06:41:00,25.8,24.3,29.24,ENE,58,2.0,4.0,94,0.00,,,0.00,Wunderground v.1.13,2013-03-23 10:41:00,
2013-03-23 06:51:00,25.9,24.4,29.24,ESE,109,3.0,3.0,94,0.00,,,0.00,Wunderground v.1.13,2013-03-23 10:51:00,
2013-03-23 06:56:00,26.0,24.5,29.24,NE,51,2.0,2.0,94,0.00,,,0.00,Wunderground v.1.13,2013-03-23 10:56:00,
2013-03-23 07:05:00,26.0,24.5,29.24,SSE,148,1.0,3.0,94,0.00,,,0.00,Wunderground v.1.13,2013-03-23 11:05:00,
2013-03-23 07:11:00,26.1,24.6,29.24,East,85,2.0,3.0,94,0.00,,,0.00,Wunderground v.1.13,2013-03-23 11:11:00,
2013-03-23 07:22:00,26.2,24.7,29.24,ENE,67,3.0,5.0,94,0.00,,,0.00,Wunderground v.1.13,2013-03-23 11:22:00,
2013-03-23 07:28:00,26.3,24.8,29.24,East,86,2.0,2.0,94,0.00,,,0.00,Wunderground v.1.13,2013-03-23 11:28:00,
2013-03-23 07:35:00,26.4,24.7,29.24,NE,37,2.0,2.0,93,0.00,,,0.00,Wunderground v.1.13,2013-03-23 11:35:00,
2013-03-23 07:41:00,26.5,25.0,29.24,NE,54,2.0,3.0,94,0.00,,,0.00,Wunderground v.1.13,2013-03-23 11:41:00,
2013-03-23 07:51:00,26.7,25.2,29.24,NE,44,2.0,2.0,94,0.00,,,0.00,Wunderground v.1.13,2013-03-23 11:51:00,
2013-03-23 07:57:00,26.8,25.3,29.24,East,90,2.0,2.0,94,0.00,,,0.00,Wunderground v.1.13,2013-03-23 11:57:00,
2013-03-23 08:06:00,27.2,25.4,29.24,NE,44,2.0,7.0,93,0.00,,,0.00,Wunderground v.1.13,2013-03-23 12:06:00,
2013-03-23 08:12:00,27.4,25.6,29.24,NE,46,2.0,3.0,93,0.00,,,0.00,Wunderground v.1.13,2013-03-23 12:12:00,
2013-03-23 08:17:00,27.4,25.6,29.24,ENE,69,3.0,7.0,93,0.00,,,0.00,Wunderground v.1.13,2013-03-23 12:17:00,
2013-03-23 08:22:00,27.5,25.7,29.24,East,82,3.0,5.0,93,0.00,,,0.00,Wunderground v.1.13,2013-03-23 12:22:00,
2013-03-23 08:27:00,27.6,25.8,29.24,East,89,2.0,3.0,93,0.00,,,0.00,Wunderground v.1.13,2013-03-23 12:27:00,
2013-03-23 08:36:00,27.8,25.8,29.23,ENE,58,2.0,2.0,92,0.00,,,0.00,Wunderground v.1.13,2013-03-23 12:36:00,
2013-03-23 08:42:00,28.1,26.3,29.23,ENE,71,2.0,5.0,93,0.00,,,0.00,Wunderground v.1.13,2013-03-23 12:42:00,
2013-03-23 08:52:00,28.4,26.4,29.24,East,94,3.0,3.0,92,0.00,,,0.00,Wunderground v.1.13,2013-03-23 12:52:00,
2013-03-23 08:57:00,28.5,26.2,29.23,East,80,3.0,10.0,91,0.00,,,0.00,Wunderground v.1.13,2013-03-23 12:57:00,
2013-03-23 09:06:00,28.7,26.4,29.23,East,85,3.0,7.0,91,0.00,,,0.00,Wunderground v.1.13,2013-03-23 13:06:00,
2013-03-23 09:12:00,28.9,26.6,29.23,East,90,3.0,3.0,91,0.00,,,0.00,Wunderground v.1.13,2013-03-23 13:12:00,
2013-03-23 09:21:00,29.4,26.8,29.23,East,87,4.0,4.0,90,0.00,,,0.00,Wunderground v.1.13,2013-03-23 13:21:00,
2013-03-23 09:26:00,29.6,26.8,29.23,ENE,62,4.0,4.0,89,0.00,,,0.00,Wunderground v.1.13,2013-03-23 13:26:00,
2013-03-23 09:36:00,29.9,27.1,29.23,ESE,116,2.0,2.0,89,0.00,,,0.00,Wunderground v.1.13,2013-03-23 13:36:00,
2013-03-23 09:42:00,29.8,26.7,29.24,ESE,103,3.0,3.0,88,0.00,,,0.00,Wunderground v.1.13,2013-03-23 13:42:00,
2013-03-23 09:51:00,29.9,26.8,29.24,SE,140,2.0,2.0,88,0.00,,,0.00,Wunderground v.1.13,2013-03-23 13:51:00,
2013-03-23 09:57:00,30.0,26.9,29.24,ENE,59,2.0,2.0,88,0.00,,,0.00,Wunderground v.1.13,2013-03-23 13:57:00,
2013-03-23 10:06:00,30.2,27.1,29.24,South,187,3.0,3.0,88,0.00,,,0.00,Wunderground v.1.13,2013-03-23 14:06:00,
2013-03-23 10:11:00,30.2,27.1,29.24,SE,138,3.0,3.0,88,0.00,,,0.00,Wunderground v.1.13,2013-03-23 14:11:00,
2013-03-23 10:21:00,30.2,26.8,29.24,East,96,3.0,3.0,87,0.00,,,0.00,Wunderground v.1.13,2013-03-23 14:21:00,
2013-03-23 10:27:00,30.3,26.9,29.24,ESE,109,4.0,4.0,87,0.00,,,0.00,Wunderground v.1.13,2013-03-23 14:27:00,
2013-03-23 10:36:00,30.4,27.0,29.24,East,98,4.0,5.0,87,0.00,,,0.00,Wunderground v.1.13,2013-03-23 14:36:00,
2013-03-23 10:42:00,30.9,27.5,29.24,East,92,3.0,3.0,87,0.00,,,0.00,Wunderground v.1.13,2013-03-23 14:42:00,
2013-03-23 10:51:00,31.3,27.6,29.24,East,88,3.0,3.0,86,0.00,,,0.00,Wunderground v.1.13,2013-03-23 14:51:00,
2013-03-23 10:57:00,31.3,27.6,29.24,ENE,70,4.0,7.0,86,0.00,,,0.00,Wunderground v.1.13,2013-03-23 14:57:00,
2013-03-23 11:07:00,31.5,28.1,29.24,East,86,3.0,3.0,87,0.00,,,0.00,Wunderground v.1.13,2013-03-23 15:07:00,
2013-03-23 11:12:00,31.8,28.1,29.24,ENE,73,2.0,6.0,86,0.00,,,0.00,Wunderground v.1.13,2013-03-23 15:12:00,
2013-03-23 11:21:00,31.9,28.2,29.24,ESE,107,3.0,3.0,86,0.00,,,0.00,Wunderground v.1.13,2013-03-23 15:21:00,
2013-03-23 11:27:00,31.9,28.2,29.25,East,96,3.0,3.0,86,0.00,,,0.00,Wunderground v.1.13,2013-03-23 15:27:00,
2013-03-23 11:36:00,32.1,28.4,29.25,ESE,105,4.0,4.0,86,0.00,,,0.00,Wunderground v.1.13,2013-03-23 15:36:00,
2013-03-23 11:41:00,32.1,28.4,29.25,ESE,106,3.0,3.0,86,0.00,,,0.00,Wunderground v.1.13,2013-03-23 15:41:00,
2013-03-23 11:51:00,32.1,28.7,29.25,East,94,3.0,3.0,87,0.00,,,0.01,Wunderground v.1.13,2013-03-23 15:51:00,
2013-03-23 11:57:00,32.7,29.3,29.25,East,84,3.0,6.0,87,0.00,,,0.01,Wunderground v.1.13,2013-03-23 15:57:00,
2013-03-23 12:06:00,33.2,29.5,29.25,East,97,3.0,7.0,86,0.00,,,0.01,Wunderground v.1.13,2013-03-23 16:06:00,
2013-03-23 12:11:00,33.2,29.5,29.25,East,101,3.0,6.0,86,0.00,,,0.01,Wunderground v.1.13,2013-03-23 16:11:00,
2013-03-23 12:20:00,33.6,29.6,29.25,NE,38,3.0,3.0,85,0.00,,,0.01,Wunderground v.1.13,2013-03-23 16:20:00,
2013-03-23 12:26:00,33.7,29.7,29.25,ENE,67,3.0,6.0,85,0.00,,,0.01,Wunderground v.1.13,2013-03-23 16:26:00,
2013-03-23 12:35:00,34.3,30.3,29.26,ESE,113,4.0,4.0,85,0.00,,,0.01,Wunderground v.1.13,2013-03-23 16:35:00,
2013-03-23 12:40:00,34.3,30.0,29.26,SE,129,4.0,12.0,84,0.00,,,0.01,Wunderground v.1.13,2013-03-23 16:40:00,
2013-03-23 12:50:00,34.0,30.0,29.26,SSE,148,5.0,5.0,85,0.00,,,0.02,Wunderground v.1.13,2013-03-23 16:50:00,
2013-03-23 12:55:00,34.1,30.4,29.26,East,97,4.0,7.0,86,0.04,,,0.03,Wunderground v.1.13,2013-03-23 16:55:00,
2013-03-23 13:05:00,34.2,30.7,29.26,East,91,2.0,5.0,87,0.04,,,0.03,Wunderground v.1.13,2013-03-23 17:05:00,
2013-03-23 13:10:00,34.3,30.5,29.27,ESE,109,2.0,2.0,86,0.04,,,0.03,Wunderground v.1.13,2013-03-23 17:10:00,
2013-03-23 13:20:00,34.4,30.9,29.27,NNE,20,2.0,3.0,87,0.00,,,0.04,Wunderground v.1.13,2013-03-23 17:20:00,
2013-03-23 13:25:00,34.5,30.5,29.27,East,83,3.0,5.0,85,0.00,,,0.04,Wunderground v.1.13,2013-03-23 17:25:00,
2013-03-23 13:35:00,34.4,30.6,29.27,East,94,3.0,3.0,86,0.00,,,0.05,Wunderground v.1.13,2013-03-23 17:35:00,
2013-03-23 13:41:00,34.1,30.6,29.27,South,170,3.0,7.0,87,0.00,,,0.05,Wunderground v.1.13,2013-03-23 17:41:00,
2013-03-23 13:51:00,34.2,30.7,29.27,ENE,69,2.0,2.0,87,0.00,,,0.05,Wunderground v.1.13,2013-03-23 17:51:00,
2013-03-23 13:56:00,34.8,31.3,29.27,ENE,57,3.0,4.0,87,0.00,,,0.05,Wunderground v.1.13,2013-03-23 17:56:00,
2013-03-23 14:06:00,35.5,31.1,29.27,East,90,3.0,3.0,84,0.00,,,0.06,Wunderground v.1.13,2013-03-23 18:06:00,
2013-03-23 14:12:00,35.1,30.8,29.27,ENE,65,4.0,11.0,84,0.00,,,0.06,Wunderground v.1.13,2013-03-23 18:12:00,
2013-03-23 14:20:00,34.2,31.0,29.28,ENE,66,4.0,5.0,88,0.05,,,0.07,Wunderground v.1.13,2013-03-23 18:20:00,
2013-03-23 14:26:00,34.0,31.4,29.28,East,80,3.0,6.0,90,0.04,,,0.07,Wunderground v.1.13,2013-03-23 18:26:00,
2013-03-23 14:43:00,34.5,31.9,29.28,East,85,2.0,5.0,90,0.00,,,0.08,Wunderground v.1.13,2013-03-23 18:43:00,
2013-03-23 14:50:00,35.0,32.1,29.29,SSW,207,2.0,4.0,89,0.00,,,0.08,Wunderground v.1.13,2013-03-23 18:50:00,
2013-03-23 14:56:00,35.4,32.2,29.29,ENE,59,3.0,4.0,88,0.04,,,0.09,Wunderground v.1.13,2013-03-23 18:56:00,
2013-03-23 15:06:00,35.3,32.1,29.29,East,92,3.0,3.0,88,0.04,,,0.09,Wunderground v.1.13,2013-03-23 19:06:00,
2013-03-23 15:12:00,35.6,32.7,29.29,ENE,64,2.0,3.0,89,0.04,,,0.10,Wunderground v.1.13,2013-03-23 19:12:00,
2013-03-23 15:21:00,35.9,32.7,29.29,ENE,78,3.0,4.0,88,0.05,,,0.11,Wunderground v.1.13,2013-03-23 19:21:00,
2013-03-23 15:27:00,36.0,33.1,29.30,ESE,104,3.0,6.0,89,0.05,,,0.11,Wunderground v.1.13,2013-03-23 19:27:00,
2013-03-23 15:36:00,36.3,33.1,29.30,East,79,4.0,7.0,88,0.05,,,0.12,Wunderground v.1.13,2013-03-23 19:36:00,
2013-03-23 15:42:00,36.1,32.9,29.30,SE,144,3.0,3.0,88,0.07,,,0.13,Wunderground v.1.13,2013-03-23 19:42:00,
2013-03-23 15:51:00,35.7,32.5,29.30,ESE,115,3.0,5.0,88,0.06,,,0.13,Wunderground v.1.13,2013-03-23 19:51:00,
2013-03-23 15:56:00,35.4,32.5,29.30,ESE,114,4.0,4.0,89,0.05,,,0.14,Wunderground v.1.13,2013-03-23 19:56:00,
2013-03-23 16:12:00,35.5,32.3,29.31,East,96,4.0,4.0,88,0.04,,,0.15,Wunderground v.1.13,2013-03-23 20:12:00,
2013-03-23 16:21:00,35.5,32.9,29.31,SSE,165,2.0,3.0,90,0.04,,,0.15,Wunderground v.1.13,2013-03-23 20:21:00,
2013-03-23 16:27:00,35.4,32.8,29.31,East,89,3.0,6.0,90,0.00,,,0.16,Wunderground v.1.13,2013-03-23 20:27:00,
2013-03-23 16:36:00,35.0,32.1,29.32,ESE,122,4.0,4.0,89,0.00,,,0.16,Wunderground v.1.13,2013-03-23 20:36:00,
2013-03-23 16:42:00,35.1,32.2,29.32,East,88,4.0,4.0,89,0.00,,,0.17,Wunderground v.1.13,2013-03-23 20:42:00,
2013-03-23 16:51:00,35.2,32.3,29.32,East,99,3.0,3.0,89,0.00,,,0.17,Wunderground v.1.13,2013-03-23 20:51:00,
2013-03-23 16:57:00,35.1,32.2,29.33,East,88,4.0,13.0,89,0.00,,,0.17,Wunderground v.1.13,2013-03-23 20:57:00,
2013-03-23 17:06:00,35.1,32.2,29.33,SE,146,4.0,5.0,89,0.00,,,0.18,Wunderground v.1.13,2013-03-23 21:06:00,
2013-03-23 17:12:00,35.3,32.1,29.33,SSE,160,5.0,11.0,88,0.00,,,0.18,Wunderground v.1.13,2013-03-23 21:12:00,
2013-03-23 17:22:00,34.2,31.3,29.34,East,100,4.0,5.0,89,0.00,,,0.18,Wunderground v.1.13,2013-03-23 21:22:00,
2013-03-23 17:28:00,33.5,31.4,29.34,East,96,4.0,7.0,92,0.00,,,0.19,Wunderground v.1.13,2013-03-23 21:28:00,
2013-03-23 17:36:00,33.6,31.5,29.34,SE,125,4.0,4.0,92,0.00,,,0.19,Wunderground v.1.13,2013-03-23 21:36:00,
2013-03-23 17:42:00,33.8,31.7,29.35,East,96,3.0,5.0,92,0.00,,,0.19,Wunderground v.1.13,2013-03-23 21:42:00,
2013-03-23 17:51:00,34.1,32.0,29.35,SE,128,3.0,3.0,92,0.00,,,0.19,Wunderground v.1.13,2013-03-23 21:51:00,
2013-03-23 17:56:00,34.1,31.7,29.36,SE,141,3.0,3.0,91,0.00,,,0.19,Wunderground v.1.13,2013-03-23 21:56:00,
2013-03-23 18:05:00,33.9,31.6,29.36,SE,140,2.0,3.0,91,0.00,,,0.20,Wunderground v.1.13,2013-03-23 22:05:00,
2013-03-23 18:12:00,33.9,31.6,29.36,SE,136,2.0,2.0,91,0.00,,,0.20,Wunderground v.1.13,2013-03-23 22:12:00,
2013-03-23 18:21:00,33.7,31.1,29.37,SSE,157,3.0,4.0,90,0.00,,,0.20,Wunderground v.1.13,2013-03-23 22:21:00,
2013-03-23 18:27:00,33.7,31.4,29.37,SE,145,3.0,4.0,91,0.00,,,0.20,Wunderground v.1.13,2013-03-23 22:27:00,
2013-03-23 18:36:00,33.5,31.2,29.38,SE,146,1.0,3.0,91,0.00,,,0.20,Wunderground v.1.13,2013-03-23 22:36:00,
2013-03-23 18:42:00,33.5,30.9,29.38,SE,136,2.0,5.0,90,0.00,,,0.20,Wunderground v.1.13,2013-03-23 22:42:00,
2013-03-23 18:51:00,33.3,31.0,29.39,SSE,153,2.0,3.0,91,0.00,,,0.21,Wunderground v.1.13,2013-03-23 22:51:00,
2013-03-23 18:57:00,33.2,30.6,29.39,East,96,3.0,5.0,90,0.00,,,0.21,Wunderground v.1.13,2013-03-23 22:57:00,
2013-03-23 19:06:00,32.8,30.2,29.39,ESE,116,2.0,5.0,90,0.00,,,0.21,Wunderground v.1.13,2013-03-23 23:06:00,
2013-03-23 19:11:00,32.7,29.8,29.39,SE,130,3.0,3.0,89,0.00,,,0.21,Wunderground v.1.13,2013-03-23 23:11:00,
2013-03-23 19:21:00,32.5,29.3,29.40,ESE,111,3.0,8.0,88,0.00,,,0.21,Wunderground v.1.13,2013-03-23 23:21:00,
2013-03-23 19:28:00,32.3,29.1,29.40,ESE,113,4.0,8.0,88,0.00,,,0.21,Wunderground v.1.13,2013-03-23 23:28:00,
2013-03-23 19:37:00,32.4,29.2,29.41,SE,145,4.0,4.0,88,0.00,,,0.21,Wunderground v.1.13,2013-03-23 23:37:00,
2013-03-23 19:42:00,32.3,29.1,29.41,SSE,153,3.0,4.0,88,0.00,,,0.21,Wunderground v.1.13,2013-03-23 23:42:00,
2013-03-23 19:52:00,32.2,29.0,29.42,SSE,152,2.0,5.0,88,0.00,,,0.21,Wunderground v.1.13,2013-03-23 23:52:00,
2013-03-23 19:57:00,32.2,28.8,29.42,SSE,161,3.0,8.0,87,0.00,,,0.21,Wunderground v.1.13,2013-03-23 23:57:00,
2013-03-23 20:05:00,32.0,28.6,29.43,SSE,158,4.0,4.0,87,0.00,,,0.21,Wunderground v.1.13,2013-03-24 00:05:00,
2013-03-23 20:11:00,31.8,28.4,29.43,SSE,148,4.0,4.0,87,0.00,,,0.21,Wunderground v.1.13,2013-03-24 00:11:00,
2013-03-23 20:22:00,31.4,28.0,29.44,SSE,159,3.0,3.0,87,0.00,,,0.21,Wunderground v.1.13,2013-03-24 00:22:00,
2013-03-23 20:28:00,31.4,27.7,29.44,SE,134,4.0,5.0,86,0.00,,,0.21,Wunderground v.1.13,2013-03-24 00:28:00,
2013-03-23 20:37:00,31.4,27.7,29.44,ESE,106,5.0,7.0,86,0.00,,,0.21,Wunderground v.1.13,2013-03-24 00:37:00,
2013-03-23 20:42:00,31.4,27.7,29.45,South,191,4.0,5.0,86,0.00,,,0.21,Wunderground v.1.13,2013-03-24 00:42:00,
2013-03-23 20:51:00,31.3,27.6,29.45,SSE,152,4.0,4.0,86,0.00,,,0.21,Wunderground v.1.13,2013-03-24 00:51:00,
2013-03-23 20:57:00,31.3,27.6,29.45,East,86,4.0,4.0,86,0.00,,,0.21,Wunderground v.1.13,2013-03-24 00:57:00,
2013-03-23 21:06:00,31.2,27.5,29.46,SE,139,3.0,4.0,86,0.00,,,0.21,Wunderground v.1.13,2013-03-24 01:06:00,
2013-03-23 21:12:00,31.3,27.9,29.47,SSE,153,3.0,7.0,87,0.00,,,0.21,Wunderground v.1.13,2013-03-24 01:12:00,
2013-03-23 21:21:00,31.2,27.5,29.47,SE,136,4.0,4.0,86,0.00,,,0.21,Wunderground v.1.13,2013-03-24 01:21:00,
2013-03-23 21:27:00,31.2,27.5,29.47,SSE,166,4.0,5.0,86,0.00,,,0.21,Wunderground v.1.13,2013-03-24 01:27:00,
2013-03-23 21:36:00,31.0,27.0,29.48,SSE,156,4.0,4.0,85,0.00,,,0.21,Wunderground v.1.13,2013-03-24 01:36:00,
2013-03-23 21:42:00,30.8,26.8,29.48,SSW,201,4.0,9.0,85,0.00,,,0.21,Wunderground v.1.13,2013-03-24 01:42:00,
2013-03-23 21:51:00,30.7,26.7,29.48,SSE,157,5.0,5.0,85,0.00,,,0.21,Wunderground v.1.13,2013-03-24 01:51:00,
2013-03-23 21:57:00,30.6,26.6,29.48,SE,145,5.0,7.0,85,0.00,,,0.21,Wunderground v.1.13,2013-03-24 01:57:00,
2013-03-23 22:06:00,30.4,26.4,29.49,SSE,152,4.0,4.0,85,0.00,,,0.21,Wunderground v.1.13,2013-03-24 02:06:00,
2013-03-23 22:12:00,30.3,26.6,29.49,SSE,149,4.0,6.0,86,0.00,,,0.21,Wunderground v.1.13,2013-03-24 02:12:00,
2013-03-23 22:21:00,30.3,26.6,29.49,SSE,154,4.0,6.0,86,0.00,,,0.21,Wunderground v.1.13,2013-03-24 02:21:00,
2013-03-23 22:27:00,30.2,26.5,29.49,SSE,168,4.0,5.0,86,0.00,,,0.21,Wunderground v.1.13,2013-03-24 02:27:00,
2013-03-23 22:37:00,30.2,26.5,29.49,SE,141,3.0,3.0,86,0.00,,,0.21,Wunderground v.1.13,2013-03-24 02:37:00,
2013-03-23 22:43:00,30.1,26.4,29.49,ESE,120,3.0,4.0,86,0.00,,,0.21,Wunderground v.1.13,2013-03-24 02:43:00,
2013-03-23 22:52:00,30.1,25.8,29.50,SSE,151,5.0,6.0,84,0.00,,,0.21,Wunderground v.1.13,2013-03-24 02:52:00,
2013-03-23 22:57:00,30.0,25.8,29.50,SE,142,4.0,5.0,84,0.00,,,0.21,Wunderground v.1.13,2013-03-24 02:57:00,
2013-03-23 23:06:00,29.9,25.7,29.50,SSE,165,3.0,5.0,84,0.00,,,0.21,Wunderground v.1.13,2013-03-24 03:06:00,
2013-03-23 23:12:00,29.9,25.7,29.50,SSE,155,5.0,5.0,84,0.00,,,0.21,Wunderground v.1.13,2013-03-24 03:12:00,
2013-03-23 23:21:00,29.7,25.2,29.51,South,173,5.0,8.0,83,0.00,,,0.21,Wunderground v.1.13,2013-03-24 03:21:00,
2013-03-23 23:27:00,29.6,25.1,29.51,South,190,5.0,5.0,83,0.00,,,0.21,Wunderground v.1.13,2013-03-24 03:27:00,
2013-03-23 23:36:00,29.4,24.9,29.52,SE,146,3.0,10.0,83,0.00,,,0.21,Wunderground v.1.13,2013-03-24 03:36:00,
2013-03-23 23:42:00,29.2,24.7,29.52,SSE,148,4.0,5.0,83,0.00,,,0.21,Wunderground v.1.13,2013-03-24 03:42:00,
2013-03-23 23:51:00,29.0,24.5,29.52,SSE,164,4.0,5.0,83,0.00,,,0.21,Wunderground v.1.13,2013-03-24 03:51:00,
2013-03-23 23:57:00,28.9,24.4,29.52,SE,142,4.0,4.0,83,0.00,,,0.21,Wunderground v.1.13,2013-03-24 03:57:00,